• En España
  • Lista de países
  • Para 7 días
  • Temperatura del agua
  • Mapa Satelital
  • El tiempo en el mapa
  • Informadores
  • user-avatar
    Iniciar sesión

    Tiempo cada hora Bukreevo

    Hoy, 17 Julio, Martes

    Tiempo Temperatura Precipitaciones Viento Presión Humedad
    00:00 +20°C° 0,1 mm 3 mps 737 mmHg 95%
    01:00 +19°C° 0,1 mm 3 mps 737 mmHg 95%
    02:00 +19°C° 0,1 mm 3 mps 737 mmHg 96%
    03:00 +19°C° 0 mm 3 mps 737 mmHg 95%
    04:00 +19°C° 0 mm 3 mps 737 mmHg 95%
    05:00 +19°C° 0 mm 3 mps 736 mmHg 95%
    06:00 +20°C° 0,4 mm 3 mps 736 mmHg 94%
    07:00 +21°C° 0,4 mm 3 mps 736 mmHg 92%
    08:00 +22°C° 0,4 mm 3 mps 736 mmHg 91%
    09:00 +22°C° 0,7 mm 4 mps 736 mmHg 88%
    10:00 +23°C° 0,7 mm 4 mps 736 mmHg 85%
    11:00 +25°C° 0,7 mm 4 mps 736 mmHg 83%
    12:00 +25°C° 0,7 mm 4 mps 736 mmHg 84%
    13:00 +25°C° 0,7 mm 4 mps 735 mmHg 85%
    14:00 +25°C° 0,7 mm 4 mps 735 mmHg 86%
    15:00 +23°C° 0,6 mm 4 mps 735 mmHg 87%
    16:00 +24°C° 0,6 mm 3 mps 735 mmHg 88%
    17:00 +24°C° 0,6 mm 3 mps 735 mmHg 89%
    18:00 +22°C° 0,4 mm 3 mps 735 mmHg 91%
    19:00 +21°C° 0,4 mm 3 mps 735 mmHg 92%
    20:00 +21°C° 0,4 mm 3 mps 735 mmHg 94%
    21:00 +20°C° 0,1 mm 2 mps 735 mmHg 95%
    22:00 +20°C° 0,1 mm 2 mps 735 mmHg 95%
    23:00 +19°C° 0,1 mm 2 mps 735 mmHg 96%

    Mañana, 18 Julio, Miércoles

    Tiempo Temperatura Precipitaciones Viento Presión Humedad
    00:00 +19°C° 0,3 mm 2 mps 735 mmHg 96%
    01:00 +19°C° 0,3 mm 2 mps 735 mmHg 96%
    02:00 +19°C° 0,3 mm 3 mps 734 mmHg 96%
    03:00 +19°C° 0,1 mm 3 mps 734 mmHg 96%
    04:00 +19°C° 0,1 mm 3 mps 734 mmHg 96%
    05:00 +19°C° 0,1 mm 4 mps 734 mmHg 96%
    06:00 +20°C° 0,3 mm 4 mps 734 mmHg 96%
    07:00 +20°C° 0,3 mm 4 mps 734 mmHg 96%
    08:00 +20°C° 0,3 mm 4 mps 734 mmHg 96%
    09:00 +21°C° 0,3 mm 4 mps 734 mmHg 94%
    10:00 +22°C° 0,3 mm 4 mps 734 mmHg 92%
    11:00 +22°C° 0,3 mm 4 mps 734 mmHg 90%
    12:00 +23°C° 0,6 mm 5 mps 734 mmHg 88%
    13:00 +23°C° 0,6 mm 5 mps 734 mmHg 86%
    14:00 +25°C° 0,6 mm 5 mps 733 mmHg 84%
    15:00 +25°C° 0,4 mm 5 mps 733 mmHg 84%
    16:00 +25°C° 0,4 mm 5 mps 733 mmHg 84%
    17:00 +25°C° 0,4 mm 4 mps 733 mmHg 84%
    18:00 +23°C° 0,1 mm 4 mps 733 mmHg 87%
    19:00 +22°C° 0,1 mm 3 mps 733 mmHg 91%
    20:00 +21°C° 0,1 mm 2 mps 733 mmHg 94%
    21:00 +20°C° 0 mm 2 mps 734 mmHg 95%
    22:00 +19°C° 0 mm 2 mps 734 mmHg 96%
    23:00 +19°C° 0 mm 2 mps 734 mmHg 97%

    Pasado mañana, 19 Julio, Jueves

    Tiempo Temperatura Precipitaciones Viento Presión Humedad
    00:00 +19°C° 0 mm 2 mps 734 mmHg 97%
    01:00 +18°C° 0 mm 2 mps 734 mmHg 97%
    02:00 +18°C° 0 mm 2 mps 734 mmHg 98%
    03:00 +19°C° 0 mm 1 mps 734 mmHg 98%
    04:00 +20°C° 0 mm 1 mps 734 mmHg 98%
    05:00 +20°C° 0 mm 1 mps 734 mmHg 98%
    06:00 +20°C° 0,1 mm 1 mps 735 mmHg 96%
    07:00 +21°C° 0,1 mm 1 mps 735 mmHg 94%
    08:00 +22°C° 0,1 mm 1 mps 735 mmHg 92%
    09:00 +23°C° 0,3 mm 2 mps 735 mmHg 87%
    10:00 +24°C° 0,3 mm 2 mps 735 mmHg 82%
    11:00 +25°C° 0,3 mm 2 mps 735 mmHg 78%
    12:00 +26°C° 0,4 mm 2 mps 735 mmHg 75%
    13:00 +26°C° 0,4 mm 2 mps 735 mmHg 73%
    14:00 +27°C° 0,4 mm 2 mps 735 mmHg 70%
    15:00 +27°C° 0,4 mm 2 mps 735 mmHg 71%
    16:00 +27°C° 0,4 mm 2 mps 735 mmHg 72%
    17:00 +27°C° 0,4 mm 1 mps 735 mmHg 73%
    18:00 +25°C° 0,2 mm 2 mps 736 mmHg 78%
    19:00 +24°C° 0,2 mm 2 mps 736 mmHg 84%
    20:00 +23°C° 0,2 mm 2 mps 736 mmHg 89%
    21:00 +21°C° 0 mm 2 mps 736 mmHg 90%
    22:00 +21°C° 0 mm 2 mps 736 mmHg 92%
    23:00 +20°C° 0 mm 2 mps 736 mmHg 94%

    20 Julio, Viernes

    Tiempo Temperatura Precipitaciones Viento Presión Humedad
    00:00 +20°C° 0,5 mm 2 mps 736 mmHg 95%
    01:00 +20°C° 0,5 mm 2 mps 736 mmHg 95%
    02:00 +19°C° 0,5 mm 2 mps 736 mmHg 96%
    03:00 +19°C° 0,7 mm 2 mps 736 mmHg 96%
    04:00 +19°C° 0,7 mm 2 mps 736 mmHg 97%
    05:00 +19°C° 0,7 mm 2 mps 736 mmHg 97%
    06:00 +20°C° 0,2 mm 2 mps 737 mmHg 94%
    07:00 +21°C° 0,2 mm 2 mps 737 mmHg 91%
    08:00 +22°C° 0,2 mm 3 mps 737 mmHg 89%
    09:00 +24°C° 0,1 mm 2 mps 737 mmHg 87%
    10:00 +24°C° 0,1 mm 2 mps 737 mmHg 84%
    11:00 +25°C° 0,1 mm 2 mps 737 mmHg 82%
    12:00 +25°C° 0,4 mm 2 mps 737 mmHg 80%
    13:00 +26°C° 0,4 mm 2 mps 737 mmHg 77%
    14:00 +27°C° 0,4 mm 2 mps 737 mmHg 75%
    15:00 +27°C° 0,4 mm 2 mps 737 mmHg 76%
    16:00 +27°C° 0,4 mm 2 mps 737 mmHg 77%
    17:00 +27°C° 0,4 mm 2 mps 737 mmHg 78%
    18:00 +26°C° 0,1 mm 2 mps 738 mmHg 82%
    19:00 +24°C° 0,1 mm 2 mps 738 mmHg 87%
    20:00 +23°C° 0,1 mm 2 mps 738 mmHg 91%
    21:00 +21°C° 0 mm 2 mps 738 mmHg 92%
    22:00 +21°C° 0 mm 2 mps 738 mmHg 93%
    23:00 +20°C° 0 mm 2 mps 738 mmHg 94%

    21 Julio, Sábado

    Tiempo Temperatura Precipitaciones Viento Presión Humedad
    00:00 +20°C° 0 mm 2 mps 738 mmHg 95%
    01:00 +20°C° 0 mm 2 mps 738 mmHg 95%
    02:00 +19°C° 0 mm 2 mps 738 mmHg 96%
    03:00 +19°C° 0 mm 2 mps 738 mmHg 96%
    04:00 +20°C° 0 mm 2 mps 738 mmHg 96%
    05:00 +20°C° 0 mm 2 mps 738 mmHg 96%
    06:00 +21°C° 0 mm 2 mps 738 mmHg 92%
    07:00 +23°C° 0 mm 2 mps 738 mmHg 88%
    08:00 +25°C° 0 mm 2 mps 738 mmHg 84%
    09:00 +26°C° 0,6 mm 3 mps 738 mmHg 80%
    10:00 +26°C° 0,6 mm 3 mps 738 mmHg 76%
    11:00 +27°C° 0,6 mm 3 mps 738 mmHg 73%
    12:00 +28°C° 0,8 mm 3 mps 738 mmHg 72%
    13:00 +28°C° 0,8 mm 3 mps 738 mmHg 71%
    14:00 +29°C° 0,8 mm 4 mps 738 mmHg 70%
    15:00 +28°C° 1,7 mm 3 mps 738 mmHg 74%
    16:00 +27°C° 1,7 mm 3 mps 738 mmHg 79%
    17:00 +26°C° 1,7 mm 2 mps 738 mmHg 83%
    18:00 +25°C° 0,2 mm 2 mps 738 mmHg 86%
    19:00 +24°C° 0,2 mm 2 mps 738 mmHg 89%
    20:00 +23°C° 0,2 mm 2 mps 738 mmHg 92%
    21:00 +23°C° 0 mm 2 mps 738 mmHg 93%
    22:00 +21°C° 0 mm 2 mps 739 mmHg 94%
    23:00 +21°C° 0 mm 2 mps 739 mmHg 95%

    22 Julio, Domingo

    Tiempo Temperatura Precipitaciones Viento Presión Humedad
    00:00 +21°C° 0 mm 2 mps 739 mmHg 96%
    01:00 +20°C° 0 mm 2 mps 739 mmHg 96%
    02:00 +20°C° 0 mm 2 mps 739 mmHg 97%
    03:00 +20°C° 0 mm 2 mps 739 mmHg 97%
    04:00 +20°C° 0 mm 2 mps 739 mmHg 97%
    05:00 +21°C° 0 mm 1 mps 739 mmHg 97%
    06:00 +21°C° 0 mm 2 mps 739 mmHg 93%
    07:00 +23°C° 0 mm 2 mps 739 mmHg 88%
    08:00 +24°C° 0 mm 2 mps 739 mmHg 84%
    09:00 +25°C° 0 mm 2 mps 739 mmHg 80%
    10:00 +26°C° 0 mm 2 mps 739 mmHg 76%
    11:00 +27°C° 0 mm 3 mps 739 mmHg 71%
    12:00 +28°C° 0,3 mm 2 mps 739 mmHg 69%
    13:00 +28°C° 0,3 mm 2 mps 739 mmHg 67%
    14:00 +29°C° 0,3 mm 2 mps 739 mmHg 66%
    15:00 +28°C° 0,5 mm 2 mps 739 mmHg 69%
    16:00 +28°C° 0,5 mm 2 mps 739 mmHg 72%
    17:00 +28°C° 0,5 mm 2 mps 738 mmHg 75%
    18:00 +26°C° 0,3 mm 2 mps 739 mmHg 80%
    19:00 +25°C° 0,3 mm 2 mps 739 mmHg 85%
    20:00 +23°C° 0,3 mm 1 mps 739 mmHg 90%
    21:00 +23°C° 0,2 mm 1 mps 739 mmHg 91%
    22:00 +21°C° 0,2 mm 2 mps 739 mmHg 93%
    23:00 +21°C° 0,2 mm 2 mps 739 mmHg 95%
    Mostrar más